Location: Naloco
(16.5478°S, 37.1017°E)
Time: 02:10:43
(UTC+00:00)

Cosmos 2082 Rocket - Pass Details

Date: 13 August 2020
Orbit: 835 x 852 km, 71.0° (Epoch: 23 September)

Event Time Altitude Azimuth Distance (km) Brightness Sun altitude
Rises 16:50:13 0° 215° (SW) 3,429 5.7 -21.4°
Reaches altitude 10° 16:52:59 10° 226° (SW) 2,488 5.1 -22.0°
Maximum altitude 16:57:46 28° 283° (WNW) 1,553 4.3 -23.2°
Drops below altitude 10° 17:02:31 10° 340° (NNW) 2,467 5.0 -24.3°
Sets 17:05:17 0° 351° (N) 3,395 5.6 -25.0°
